Location: D�pe
(52.6057°N, 8.1808°E)
Time: 07:43:24
(UTC+00:00)

Ariane Rocket - Pass Details

Date: 29 October 2020
Orbit: 759 x 771 km, 98.7° (Epoch: 01 December)

Event Time Altitude Azimuth Distance (km) Brightness Sun altitude
Exits shadow 17:53:39 27° 66° (ENE) 1,447 3.9 -17.4°
Maximum altitude 17:54:00 28° 59° (ENE) 1,440 3.9 -17.4°
Drops below altitude 10° 17:58:16 10° 2° (N) 2,326 5.5 -18.1°
Sets 18:00:52 0° 351° (N) 3,256 6.4 -18.5°
